Weather History for MMZC - September, 2012

Change the Weather History Date:

Tuesday, September 11, 2012

  Actual Average Record
Temperature  
Mean Temperature 66 °F -  
Max Temperature 82 °F 72 °F 84 °F (2000)
Min Temperature 50 °F 51 °F 48 °F (1996)
Cooling Degree Days 1    
Growing Degree Days 16 (Base 50)    
Moisture  
Dew Point 48 °F    
Average Humidity 56    
Maximum Humidity 82    
Minimum Humidity 28    
Precipitation  
Precipitation 0.00 in - - ()
Sea Level Pressure  
Sea Level Pressure 30.30 in    
Wind  
Wind Speed 7 mph ()    
Max Wind Speed 17 mph    
Max Gust Speed 23 mph    
Visibility 9.4 miles    
Events      
Averages and records for this station are not official NWS values.
T = Trace of Precipitation, MM = Missing Value Source: Averaged Metar Reports

Daily Weather History Graph

Daily Weather History Graph

Search for Another Location

Airport or City:

Trip Planner

Search our weather history database for the weather conditions in past years. The results will help you decide how hot, cold, wet, or windy it might be!

Date:

Astronomy

Sep. 11, 2012 Rise Set
Actual Time 7:36 AM CDT 7:57 PM CDT
Civil Twilight 7:13 AM CDT 8:20 PM CDT
Nautical Twilight 6:47 AM CDT 8:46 PM CDT
Astronomical Twilight 6:20 AM CDT 9:12 PM CDT
Moon 3:21 AM CDT (9/11) 4:47 PM CDT (9/11)
Length of Visible Light 13h 06m
Length of Day
12h 21m
Waning Crescent, 21% of the Moon is Illuminated
Sep 11
Waning Crescent
Sep 15
New
Sep 22
First Quarter
Sep 29
Full
Oct 8
Last Quarter

Hourly Weather History & Observations

Time (CDT) Temp. Dew Point Humidity Pressure Visibility Wind Dir Wind Speed Gust Speed Precip Events Conditions
12:45 AM 60.8 °F 46.4 °F 59% 30.32 in 10.0 mi SE 10.4 mph - N/A   Clear
1:45 AM 59.0 °F 48.2 °F 67% 30.33 in 10.0 mi ESE 8.1 mph - N/A   Clear
2:45 AM 55.4 °F 46.4 °F 72% 30.32 in 10.0 mi South 4.6 mph - N/A   Clear
4:46 AM 53.6 °F 46.4 °F 77% 30.29 in 10.0 mi Calm Calm - N/A   Clear
5:46 AM 51.8 °F 44.6 °F 76% 30.29 in 10.0 mi NW 4.6 mph - N/A   Clear
6:46 AM 50.0 °F 42.8 °F 76% 30.30 in 10.0 mi Calm Calm - N/A   Clear
7:41 AM 51.8 °F 46.4 °F 82% 30.32 in 7.0 mi East 11.5 mph - N/A   Scattered Clouds
8:40 AM 53.6 °F 48.2 °F 82% 30.34 in 8.0 mi East 11.5 mph - N/A   Mostly Cloudy
9:40 AM 60.8 °F 51.8 °F 72% 30.35 in 7.0 mi SE 8.1 mph - N/A   Mostly Cloudy
10:40 AM 66.2 °F 51.8 °F 60% 30.36 in 8.0 mi South 6.9 mph - N/A   Mostly Cloudy
11:40 AM 69.8 °F 53.6 °F 56% 30.36 in 8.0 mi SE 8.1 mph - N/A   Scattered Clouds
12:40 PM 71.6 °F 51.8 °F 50% 30.35 in 9.0 mi Calm Calm - N/A   Scattered Clouds
1:41 PM 75.2 °F 50.0 °F 41% 30.32 in 10.0 mi East 11.5 mph - N/A   Scattered Clouds
2:56 PM 78.8 °F 48.2 °F 34% 30.30 in 10.0 mi East 3.5 mph - N/A   Mostly Cloudy
3:40 PM 78.8 °F 48.2 °F 34% 30.26 in 10.0 mi SE 16.1 mph - N/A   Mostly Cloudy
4:41 PM 82.4 °F 46.4 °F 28% 30.23 in 10.0 mi East 5.8 mph - N/A   Mostly Cloudy
5:40 PM 77.0 °F 44.6 °F 32% 30.22 in 10.0 mi ENE 17.3 mph - N/A   Mostly Cloudy
6:45 PM 75.2 °F 46.4 °F 36% 30.21 in 10.0 mi East 11.5 mph - N/A   Scattered Clouds
9:00 PM 69.8 °F 46.4 °F 43% 30.26 in 10.0 mi ESE 17.3 mph - N/A   Scattered Clouds
9:57 PM 66.2 °F 48.2 °F 52% 30.29 in 10.0 mi SE 11.5 mph 23.0 mph N/A   Scattered Clouds
10:46 PM 64.4 °F 46.4 °F 52% 30.31 in 10.0 mi SE 11.5 mph 23.0 mph N/A   Clear
11:47 PM 62.6 °F 46.4 °F 55% 30.32 in 10.0 mi SE 11.5 mph 23.0 mph N/A   Clear